Regional Weather Roundup
Issued by NWS

Home | Current Version | Previous Version | Graphics & Text | Print | Product List | Glossary On
Versions: 1 2 3 4 5 6 7 8 9 10 11 12 13 14 15 16 17 18 19 20 21 22 23 24 25 26 27
000
ASUS45 KBOU 281607
RWRCO

WEATHER ROUNDUP FOR COLORADO
NATIONAL WEATHER SERVICE DENVER/BOULDER CO
1000 AM MDT THU APR 28 2016

NOTE: "FAIR" INDICATES FEW OR NO CLOUDS BELOW 12000 FEET WITH NO
SIGNIFICANT WEATHER AND/OR OBSTRUCTIONS TO VISIBILITY.

COZ001>005-013-030-031-281700-
...NORTHWEST COLORADO...

CITY           SKY/WX    TMP DP  RH WIND       PRES   REMARKS
CRAIG          LGT SNOW  33  31  92 CALM      29.79S VSB 3/4
HAYDEN         CLOUDY    37  30  75 E5        29.77F
MEEKER         CLOUDY    41  36  82 SE3       29.76R
MOUNT WERNER   NOT AVBL
STEAMBOAT SPGS CLOUDY    35  30  80 SW3       29.77S
WALDEN         CLOUDY    32  27  80 W5        29.85S WCI  27
$$

COZ006>008-011-281700-
...WEST CENTRAL VALLEYS...

CITY           SKY/WX    TMP DP  RH WIND       PRES   REMARKS
GRAND JUNCTION PTSUNNY   43  38  82 NW3       29.75F
MONTROSE       FAIR      49  38  65 NE5       29.77F
EAGLE          PTSUNNY   43  34  70 CALM      29.78F
RIFLE          LGT RAIN  43  38  82 E3        29.78R
DELTA          NOT AVBL
NUCLA          NOT AVBL
$$

COZ017>023-064>068-281700-
...SOUTHWEST COLORADO...

CITY           SKY/WX    TMP DP  RH WIND       PRES   REMARKS
DURANGO        CLOUDY    51  30  44 SE12      29.81S
CORTEZ         FAIR      57  29  34 S23G31    29.75S
PAGOSA SPRINGS CLOUDY    46  30  54 E3        29.87F
TELLURIDE      SNOW      33  32  98 NE3       29.85S VSB 1/2
WOLF CREEK PAS NOT AVBL
$$

COZ009-010-012-014-032>034-037-058>063-281700-
...CENTRAL COLORADO...

CITY           SKY/WX    TMP DP  RH WIND       PRES   REMARKS
ASPEN          PTSUNNY   47  30  51 SE8       29.73F
BUENA VISTA    LGT SNOW  32  29  90 SE6       29.91S VSB 1   WCI  26
COPPER MTN     NOT AVBL
BERTHOUD PASS  CLOUDY    18   9  68 MISG      29.89S
COTTONWOOD PAS LGT SNOW  32  28  86 E10       29.91S WCI  24
GUNNISON       CLOUDY    48  27  43 S13G20    29.80S
KREMMLING      CLOUDY    36  30  80 CALM      29.83S
LEADVILLE      CLOUDY    29  27  92 S15       29.84F WCI  18
MONARCH PASS   CLOUDY    27  23  86 SW8G24    30.02F FOG     WCI  18
SALIDA         CLOUDY    33  31  94 SE7       29.98S WCI  26
SUNLIGHT       HVY SNOW  30  30 100 CALM      29.86F VSB<1/4
WILKERSON PASS CLOUDY   N/A N/A N/A SW5       29.95S FOG
$$

COZ069>075-281700-
...SAN LUIS VALLEY/SANGRE DE CRISTO MOUNTAINS...

CITY           SKY/WX    TMP DP  RH WIND       PRES   REMARKS
ALAMOSA        CLOUDY    47  28  47 S18G26    29.86F
LA VETA PASS   CLOUDY    34  32  93 S6        29.95F FOG     WCI  29
SAGUACHE       PTSUNNY   45  32  61 S7        29.86F
$$

COZ035-036-038>040-281700-
...NORTHERN COLORADO FRONT RANGE...

CITY           SKY/WX    TMP DP  RH WIND       PRES   REMARKS
DENVER INTL AP LGT SNOW  36  29  75 E9        29.97S VSB 1
DMNS CITY PARK   N/A     35  33  90 E13       29.98R WCI  26
AURORA         LGT SNOW  34  33  99 SE9       29.98S FOG     WCI  26
FRONT RANGE AP LGT SNOW  36  32  87 E10G16    29.99R VSB 1
ERIE MUNI ARPT CLOUDY    38  29  69 SE8       29.98S
BOULDER MUN AP LGT SNOW  36  32  87 E5        29.97S
CENTENNIAL     LGT SNOW  34  31  88 E10       29.96S FOG     WCI  26
BROOMFIELD     CLOUDY    37  28  70 E9        29.98R VSB 1
FORT COLLINS   CLOUDY    37  28  70 SE8       29.99F
LONGMONT       LGT SNOW  40  31  72 E5        30.00S
$$

COZ041-046-047-076>085-087-088-281700-
...PIKES PEAK/PALMER DIVIDE AND SOUTHERN FOOTHILLS...

CITY           SKY/WX    TMP DP  RH WIND       PRES   REMARKS
COLO. SPRINGS  LGT SNOW  33  31  92 S10       29.98S VSB 1   WCI  25
A. F. ACADEMY  FLURRIES  32  32 100 SE14      29.95S WCI  22
SCHRIEVER AFB  NOT AVBL
ELLICOTT       NOT AVBL
FALCON         LGT SNOW  31  30  94 SE7       29.98S WCI  24
FORT CARSON    LGT SNOW  32  32 100 S7        29.96F FOG     WCI  26
LIMON          LGT SNOW  34  32  92 NE7       29.99S FOG     WCI  28
MONUMENT HILL  LGT SNOW  30  28  93 SE13      29.96S WCI  20
TRINIDAD       CLOUDY    43  31  62 E10       29.95S
$$

COZ042>045-048>051-090-091-281700-
...NORTHEAST COLORADO...

CITY           SKY/WX    TMP DP  RH WIND       PRES   REMARKS
GREELEY ARPT   CLOUDY    37  30  75 E8        30.00S
AKRON          CLOUDY    37  28  70 NE7       30.00S
BURLINGTON     CLOUDY    41  29  62 NE12      30.00R
WRAY           NOT AVBL
STERLING       CLOUDY    39  32  75 NE7       30.00S
HOLYOKE        NOT AVBL
FORT MORGAN    CLOUDY    39  30  69 E7        30.00F
$$

COZ086-089-092>099-281700-
...SOUTHEAST COLORADO...

CITY           SKY/WX    TMP DP  RH WIND       PRES   REMARKS
PUEBLO         CLOUDY    42  33  70 NE5       29.98F
LA JUNTA       CLOUDY    44  29  55 E10       30.00R
LAMAR          CLOUDY    44  30  57 NE12      29.98S
SPRINGFIELD      N/A     44  32  62 NE13      29.97F
$$




USA.gov is the U.S. government's official web portal to all federal, state and local government web resources and services.